Date String (YYYY-MM-DD hh:mm:ss) UTC,Instrument flags,Ambient pressure (hPa),Sample flow (lpm),Bypass flow (lpm),Sample temperature (°C),Ambient temperature (°C),ASC tube jacket temperature (°C),LED temperature (°C),Box temperature (°C),Sample RH (%),Span deviation,Mass concentration (μg/m³),Mass concentration (μg/m³),Mass concentration (μg/m³)
DateTimeUTC,F1_M11,P_M11,Q1_M11,Q2_M11,T1_M11,T2_M11,T3_M11,T4_M11,T5_M11,U1_M11,ZSPAN_M11,X2_M11,X0_M11,X1_M11
2022-12-09 12:00:00,,0825.3,4.99,0.00,21.5,20.1,00.0,30.4,23.3,06.6,0000.0,0002.32,0008.38,0001.38
2022-12-09 12:01:00,,0825.3,5.01,0.00,21.5,20.0,00.0,30.4,23.3,06.5,0000.0,0002.26,0007.97,0001.36
2022-12-09 12:02:00,,0825.4,5.01,0.00,21.5,19.9,00.0,30.4,23.2,06.7,0000.0,0002.21,0007.37,0001.35
2022-12-09 12:03:00,,0825.4,4.98,0.00,21.4,19.7,00.0,30.4,23.1,06.7,0000.0,0002.18,0005.99,0001.34
2022-12-09 12:04:00,,0825.4,5.01,0.00,21.4,19.6,00.0,30.4,23.1,06.5,0000.0,0002.21,0006.00,0001.32
2022-12-09 12:05:00,,0825.4,5.02,0.00,21.5,20.6,00.0,30.3,23.2,06.3,0000.0,0002.19,0005.97,0001.31
2022-12-09 12:06:00,,0825.4,4.99,0.00,21.6,21.6,00.0,30.3,23.5,06.2,0000.0,0002.11,0005.16,0001.29
2022-12-09 12:07:00,,0825.4,4.99,0.00,21.6,21.5,00.0,30.3,23.5,06.2,0000.0,0002.06,0004.86,0001.28
2022-12-09 12:08:00,,0825.3,4.99,0.00,21.6,21.0,00.0,30.4,23.5,06.3,0000.0,0002.03,0004.06,0001.26
2022-12-09 12:09:00,,0825.4,5.00,0.00,21.6,20.6,00.0,30.4,23.4,06.4,0000.0,0002.08,0004.12,0001.25
2022-12-09 12:10:00,,0825.4,5.02,0.00,21.6,20.4,00.0,30.4,23.3,06.3,0000.0,0002.09,0004.14,0001.24
2022-12-09 12:11:00,,0825.5,4.99,0.00,21.6,20.2,00.0,30.4,23.3,06.3,0000.0,0002.09,0004.10,0001.24
2022-12-09 12:12:00,,0825.6,4.98,0.00,21.6,20.1,00.0,30.4,23.3,06.3,0000.0,0002.05,0003.96,0001.25
2022-12-09 12:13:00,,0825.6,5.00,0.00,21.5,20.1,00.0,30.4,23.3,06.2,0000.0,0002.01,0003.80,0001.24
2022-12-09 12:14:00,,0825.6,5.02,0.00,21.5,20.1,00.0,30.4,23.3,06.5,0000.0,0001.99,0003.76,0001.22
2022-12-09 12:15:00,,0825.6,4.99,0.00,21.5,20.0,00.0,30.4,23.3,06.7,0000.0,0001.93,0003.60,0001.25
2022-12-09 12:16:00,,0825.5,4.98,0.00,21.5,20.1,00.0,30.4,23.3,06.7,0000.0,0001.95,0003.64,0001.28
2022-12-09 12:17:00,,0825.5,5.00,0.00,21.5,20.1,00.0,30.4,23.3,06.7,0000.0,0002.00,0003.91,0001.31
2022-12-09 12:18:00,,0825.5,5.02,0.00,21.5,20.1,00.0,30.4,23.3,06.7,0000.0,0002.01,0003.88,0001.33
2022-12-09 12:19:00,,0825.5,5.00,0.00,21.5,20.2,00.0,30.4,23.3,06.8,0000.0,0002.07,0003.96,0001.36
2022-12-09 12:20:00,,0825.5,4.99,0.00,21.6,21.1,00.0,30.4,23.5,06.8,0000.0,0002.08,0004.02,0001.40
2022-12-09 12:21:00,,0825.4,4.99,0.00,21.7,21.9,00.0,30.4,23.7,06.7,0000.0,0002.15,0004.23,0001.45
2022-12-09 12:22:00,,0825.4,5.02,0.00,21.7,21.6,00.0,30.4,23.7,06.7,0000.0,0002.19,0004.49,0001.48
2022-12-09 12:23:00,,0825.4,5.01,0.00,21.7,21.2,00.0,30.5,23.6,06.7,0000.0,0002.28,0004.64,0001.53
2022-12-09 12:24:00,,0825.4,4.99,0.00,21.7,20.9,00.0,30.5,23.5,06.7,0000.0,0002.38,0005.47,0001.59
2022-12-09 12:25:00,,0825.5,4.99,0.00,21.7,20.6,00.0,30.5,23.5,06.8,0000.0,0002.39,0005.60,0001.65
2022-12-09 12:26:00,,0825.5,5.00,0.00,21.7,20.4,00.0,30.5,23.4,06.9,0000.0,0002.41,0005.54,0001.68
2022-12-09 12:27:00,,0825.4,5.02,0.00,21.6,20.2,00.0,30.5,23.4,06.9,0000.0,0002.49,0005.61,0001.73
2022-12-09 12:28:00,,0825.4,4.99,0.00,21.6,20.1,00.0,30.5,23.3,06.9,0000.0,0002.51,0005.42,0001.78
2022-12-09 12:29:00,,0825.4,4.98,0.00,21.6,20.1,00.0,30.5,23.3,06.8,0000.0,0002.57,0005.62,0001.82
2022-12-09 12:30:00,,0825.4,5.01,0.00,21.6,20.1,00.0,30.5,23.3,06.7,0000.0,0002.56,0005.54,0001.84
2022-12-09 12:31:00,,0825.4,5.03,0.00,21.6,20.0,00.0,30.5,23.3,06.7,0000.0,0002.57,0005.47,0001.86
2022-12-09 12:32:00,,0825.4,4.99,0.00,21.6,19.9,00.0,30.5,23.3,06.8,0000.0,0002.56,0005.51,0001.88
2022-12-09 12:33:00,,0825.4,4.99,0.00,21.5,20.1,00.0,30.5,23.3,06.8,0000.0,0002.58,0006.06,0001.90
2022-12-09 12:34:00,,0825.4,5.00,0.00,21.6,21.1,00.0,30.4,23.5,06.8,0000.0,0002.57,0006.67,0001.90
2022-12-09 12:35:00,,0825.3,5.00,0.00,21.7,21.9,00.0,30.4,23.7,06.7,0000.0,0002.54,0006.82,0001.90
2022-12-09 12:36:00,,0825.4,5.01,0.00,21.8,21.7,00.0,30.5,23.8,06.7,0000.0,0002.53,0007.97,0001.92
2022-12-09 12:37:00,,0825.4,5.01,0.00,21.8,21.3,00.0,30.5,23.7,06.7,0000.0,0002.55,0008.09,0001.92
2022-12-09 12:38:00,,0825.4,4.99,0.00,21.8,20.8,00.0,30.5,23.6,06.7,0000.0,0002.49,0008.00,0001.90
2022-12-09 12:39:00,,0825.5,4.98,0.00,21.7,20.5,00.0,30.5,23.5,06.8,0000.0,0002.49,0008.74,0001.86
2022-12-09 12:40:00,,0825.4,5.00,0.00,21.7,20.1,00.0,30.6,23.4,06.8,0000.0,0002.48,0009.04,0001.83
2022-12-09 12:41:00,,0825.5,5.01,0.00,21.6,19.9,00.0,30.6,23.3,06.8,0000.0,0002.45,0009.69,0001.81
2022-12-09 12:42:00,,0825.4,4.98,0.00,21.6,19.6,00.0,30.5,23.2,06.8,0000.0,0002.43,0010.32,0001.80
2022-12-09 12:43:00,,0825.4,5.01,0.00,21.5,19.4,00.0,30.5,23.1,06.8,0000.0,0002.43,0010.26,0001.79
2022-12-09 12:44:00,,0825.5,5.00,0.00,21.5,19.3,00.0,30.5,23.1,06.8,0000.0,0002.43,0009.89,0001.78
2022-12-09 12:45:00,,0825.4,4.99,0.00,21.5,19.9,00.0,30.4,23.1,06.9,0000.0,0002.42,0009.91,0001.78
2022-12-09 12:46:00,,0825.4,5.00,0.00,21.6,21.1,00.0,30.4,23.4,07.1,0000.0,0002.41,0009.37,0001.78
2022-12-09 12:47:00,,0825.4,5.01,0.00,21.7,21.7,00.0,30.4,23.6,07.0,0000.0,0002.39,0008.42,0001.75
2022-12-09 12:48:00,,0825.4,5.01,0.00,21.7,21.3,00.0,30.4,23.5,07.1,0000.0,0002.36,0008.44,0001.74
2022-12-09 12:49:00,,0825.4,4.99,0.00,21.7,20.9,00.0,30.5,23.5,07.1,0000.0,0002.39,0008.46,0001.76
2022-12-09 12:50:00,,0825.4,4.99,0.00,21.6,20.7,00.0,30.5,23.4,07.0,0000.0,0002.42,0007.86,0001.79
2022-12-09 12:51:00,,0825.4,5.00,0.00,21.6,20.5,00.0,30.5,23.4,07.1,0000.0,0002.44,0007.41,0001.84
2022-12-09 12:52:00,,0825.4,5.01,0.00,21.6,20.3,00.0,30.5,23.4,06.8,0000.0,0002.44,0006.49,0001.86
2022-12-09 12:53:00,,0825.4,5.02,0.00,21.6,20.2,00.0,30.5,23.3,06.7,0000.0,0002.44,0005.73,0001.85
2022-12-09 12:54:00,,0825.4,4.98,0.00,21.6,20.2,00.0,30.5,23.3,06.4,0000.0,0002.37,0006.53,0001.83
2022-12-09 12:55:00,,0825.3,4.99,0.00,21.6,20.1,00.0,30.5,23.3,06.5,0000.0,0002.30,0006.80,0001.80
2022-12-09 12:56:00,,0825.3,5.00,0.00,21.6,20.1,00.0,30.5,23.3,06.7,0000.0,0002.29,0006.39,0001.79
2022-12-09 12:57:00,,0825.3,5.02,0.00,21.5,20.0,00.0,30.4,23.3,06.8,0000.0,0002.31,0006.46,0001.79
2022-12-09 12:58:00,,0825.3,5.00,0.00,21.6,20.6,00.0,30.4,23.4,06.8,0000.0,0002.32,0006.58,0001.79
2022-12-09 12:59:00,,0825.2,4.99,0.00,21.7,21.6,00.0,30.4,23.6,06.8,0000.0,0002.32,0006.13,0001.77
